Regional Weather Roundup
Issued by NWS Charleston, WV

Home | Current Version | Previous Version | Text Only | Print | Product List | Glossary Off
Versions: 1 2 3 4 5 6 7 8 9 10 11 12 13 14 15 16 17 18 19 20 21 22 23 24 25 26 27 28 29 30 31 32 33 34 35 36 37 38 39 40 41 42 43 44 45 46 47 48 49 50

000
ASUS41 KRLX 242210
RWRRLX
West Virginia Regional Weather Roundup
National Weather Service Charleston WV
600 PM EDT FRI APR 24 2015

Note: "fair" indicates few or no clouds below 12,000 feet with no
significant weather and/or obstructions to visibility.

WVZ003-242300-
Northern Panhandle of West Virginia

CITY           SKY/WX    TMP DP  RH WIND       PRES   REMARKS
WHEELING       SUNNY     55  20  25 NW15G22   29.99S
$$

WVZ009-242300-
Northwest West Virginia

CITY           SKY/WX    TMP DP  RH WIND       PRES   REMARKS
PARKERSBURG    MOSUNNY   59  17  19 W6        30.02F
$$

WVZ006-242300-
Western West Virginia

CITY           SKY/WX    TMP DP  RH WIND       PRES   REMARKS
HUNTINGTON     PTSUNNY   59  21  23 VRB5      29.99F
$$

WVZ015-242300-
West Central West Virginia

CITY           SKY/WX    TMP DP  RH WIND       PRES   REMARKS
CHARLESTON     PTSUNNY   59  18  20 W6        30.00F
$$

WVZ022-031-242300-
North Central West Virginia

CITY           SKY/WX    TMP DP  RH WIND       PRES   REMARKS
CLARKSBURG     MOSUNNY   56  21  25 W12G21    30.00S
MORGANTOWN     SUNNY     56  17  21 NW8G18    30.00S
$$

WVZ025-035-042-045-242300-
Southern West Virginia

CITY           SKY/WX    TMP DP  RH WIND       PRES   REMARKS
BECKLEY        PTSUNNY   56  15  20 VRB6      29.99F
LOGAN            N/A     59  18  20 CALM      29.96F
BLUEFIELD      PTSUNNY   60  12  15 W7        29.99F
LEWISBURG      PTSUNNY   58  12  16 NW8       29.99F
$$

WVZ047-242300-
Northern Mountains of West Virginia

CITY           SKY/WX    TMP DP  RH WIND       PRES   REMARKS
ELKINS         SUNNY     54  18  24 NW8       30.00S
$$

WVZ052-242300-
Eastern Panhandle of West Virginia

CITY           SKY/WX    TMP DP  RH WIND       PRES   REMARKS
MARTINSBURG    SUNNY     58  18  21 W22G32    29.93R
PETERSBURG     MOSUNNY   58  17  20 W14G20    29.96S
$$


USA.gov is the U.S. government's official web portal to all federal, state and local government web resources and services.